�������l�o���
Date,Time,MP-1(��Sv/h),MP-2(��Sv/h),MP-3(��Sv/h),MP-4(��Sv/h),MP-5(��Sv/h),MP-6(��Sv/h),MP-7(��Sv/h),MP-8(��Sv/h),����,����(m/s),���J
2016/10/21,00:00,1.171,1.970,1.352,2.178,1.540,0.611,1.079,0.994,��,7.8,��
2016/10/21,00:10,1.172,1.970,1.351,2.179,1.537,0.608,1.080,0.995,���k��,8.3,��
2016/10/21,00:20,1.170,1.967,1.352,2.179,1.537,0.611,1.079,0.995,���k��,8.2,��
2016/10/21,00:30,1.170,1.965,1.351,2.177,1.538,0.610,1.077,0.993,���k��,9.4,��
2016/10/21,00:40,1.174,1.969,1.351,2.175,1.536,0.608,1.080,0.993,��,8.3,��
2016/10/21,00:50,1.171,1.973,1.352,2.179,1.536,0.609,1.079,0.994,���k��,8.5,��
2016/10/21,01:00,1.173,1.969,1.352,2.178,1.535,0.608,1.082,0.994,���k��,9.7,��
2016/10/21,01:10,1.172,1.968,1.349,2.176,1.538,0.609,1.079,0.994,��,9.6,��
2016/10/21,01:20,1.168,1.968,1.351,2.179,1.538,0.608,1.078,0.992,���k��,8.3,��
2016/10/21,01:30,1.172,1.969,1.353,2.184,1.535,0.608,1.081,0.995,���k��,9.7,��
2016/10/21,01:40,1.167,1.968,1.351,2.177,1.540,0.609,1.079,0.993,���k��,9.4,��
2016/10/21,01:50,1.170,1.966,1.351,2.177,1.538,0.608,1.080,0.994,���k��,8.3,��
2016/10/21,02:00,1.169,1.966,1.350,2.179,1.537,0.609,1.077,0.993,���k��,8.2,��
2016/10/21,02:10,1.172,1.968,1.352,2.184,1.535,0.609,1.078,0.993,���k��,9.1,��
2016/10/21,02:20,1.170,1.970,1.352,2.180,1.536,0.609,1.080,0.995,���k��,8.5,��
2016/10/21,02:30,1.168,1.968,1.349,2.180,1.538,0.609,1.079,0.992,���k��,8.8,��
2016/10/21,02:40,1.167,1.971,1.353,2.181,1.537,0.608,1.078,0.993,���k��,8.3,��
2016/10/21,02:50,1.168,1.971,1.352,2.178,1.537,0.608,1.077,0.991,���k��,8.3,��
2016/10/21,03:00,1.168,1.967,1.349,2.177,1.535,0.607,1.079,0.993,�k��,7.7,��
2016/10/21,03:10,1.169,1.968,1.352,2.179,1.533,0.608,1.076,0.994,�k��,6.7,��
2016/10/21,03:20,1.169,1.967,1.352,2.177,1.536,0.608,1.076,0.992,�k��,5.2,��
2016/10/21,03:30,1.171,1.964,1.350,2.173,1.534,0.610,1.080,0.993,���k��,5.2,��
2016/10/21,03:40,1.168,1.967,1.349,2.176,1.534,0.608,1.076,0.991,���k��,5.5,��
2016/10/21,03:50,1.169,1.968,1.350,2.178,1.533,0.609,1.079,0.993,���k��,6.0,��
2016/10/21,04:00,1.168,1.964,1.351,2.177,1.533,0.608,1.079,0.991,���k��,6.3,��
2016/10/21,04:10,1.167,1.964,1.347,2.175,1.534,0.608,1.078,0.991,���k��,6.6,��
2016/10/21,04:20,1.168,1.966,1.349,2.176,1.536,0.607,1.078,0.992,���k��,6.3,��
2016/10/21,04:30,1.168,1.966,1.352,2.178,1.534,0.605,1.081,0.991,��,7.1,��
2016/10/21,04:40,1.169,1.970,1.349,2.178,1.532,0.607,1.078,0.993,���k��,6.4,��
2016/10/21,04:50,1.167,1.969,1.349,2.178,1.532,0.607,1.079,0.992,���k��,6.9,��
2016/10/21,05:00,1.168,1.967,1.349,2.175,1.534,0.607,1.078,0.992,��,6.7,��
2016/10/21,05:10,1.166,1.967,1.350,2.176,1.535,0.606,1.079,0.991,��,6.1,��
2016/10/21,05:20,1.167,1.967,1.350,2.177,1.533,0.606,1.076,0.990,��,4.7,��
2016/10/21,05:30,1.166,1.964,1.350,2.175,1.532,0.606,1.077,0.992,���k��,4.7,��
2016/10/21,05:40,1.164,1.964,1.348,2.178,1.532,0.607,1.079,0.992,���k��,4.6,��
2016/10/21,05:50,1.167,1.965,1.350,2.174,1.533,0.607,1.078,0.991,���k��,4.9,��
2016/10/21,06:00,1.166,1.966,1.348,2.175,1.535,0.607,1.079,0.993,��,5.5,��
2016/10/21,06:10,1.166,1.962,1.349,2.178,1.533,0.605,1.078,0.993,���k��,4.1,��
2016/10/21,06:20,1.166,1.964,1.348,2.175,1.533,0.605,1.079,0.991,���k��,3.1,��
2016/10/21,06:30,1.165,1.965,1.348,2.173,1.532,0.605,1.078,0.991,�k��,3.9,��
2016/10/21,06:40,1.168,1.961,1.348,2.178,1.532,0.605,1.078,0.990,�k��,4.5,��
2016/10/21,06:50,1.164,1.961,1.348,2.175,1.530,0.605,1.077,0.991,�k��,5.5,��
2016/10/21,07:00,1.164,1.963,1.348,2.174,1.533,0.604,1.077,0.991,�k��,5.2,��
2016/10/21,07:10,1.167,1.966,1.350,2.175,1.534,0.606,1.077,0.991,�k��,6.0,��
2016/10/21,07:20,1.166,1.967,1.350,2.175,1.531,0.605,1.077,0.992,�k��,6.4,��
2016/10/21,07:30,1.165,1.965,1.349,2.178,1.530,0.605,1.078,0.991,�k��,5.2,��
2016/10/21,07:40,1.166,1.960,1.345,2.176,1.534,0.605,1.078,0.992,�k��,3.8,��
2016/10/21,07:50,1.167,1.962,1.340,2.175,1.534,0.607,1.079,0.992,�k��,3.8,��
2016/10/21,08:00,1.168,1.962,1.337,2.178,1.531,0.606,1.079,0.993,�k��,4.4,��
2016/10/21,08:10,1.168,1.960,1.338,2.181,1.532,0.606,1.079,0.992,�k��,5.6,��
2016/10/21,08:20,1.166,1.964,1.333,2.179,1.533,0.606,1.078,0.992,�k��,8.0,��
2016/10/21,08:30,1.167,1.963,1.332,2.178,1.534,0.606,1.079,0.992,�k��,7.1,��
2016/10/21,08:40,1.167,1.964,1.330,2.181,1.536,0.606,1.077,0.993,�k��,6.9,��
2016/10/21,08:50,1.169,1.963,1.334,2.182,1.535,0.608,1.078,0.994,�k��,5.8,��
2016/10/21,09:00,1.168,1.967,1.334,2.180,1.534,0.607,1.077,0.995,�k��,4.9,��
2016/10/21,09:10,1.166,1.961,1.337,2.180,1.533,0.606,1.078,0.994,�k��,6.0,��
2016/10/21,09:20,1.166,1.965,1.338,2.181,1.535,0.608,1.079,0.993,���k��,2.7,��
2016/10/21,09:30,1.169,1.959,1.335,2.180,1.535,0.608,1.079,0.994,���k��,4.7,��
2016/10/21,09:40,1.168,1.965,1.336,2.184,1.533,0.607,1.078,0.993,���k��,2.8,��
2016/10/21,09:50,1.170,1.961,1.339,2.182,1.531,0.608,1.080,0.995,�k��,3.8,��
2016/10/21,10:00,1.170,1.960,1.337,2.184,1.535,0.608,1.080,0.993,�k��,5.6,��
2016/10/21,10:10,1.169,1.963,1.334,2.180,1.537,0.604,1.078,0.992,�k��,4.5,��
2016/10/21,10:20,1.170,1.960,1.334,2.185,1.537,0.605,1.080,0.992,���k��,3.4,��
2016/10/21,10:30,1.171,1.963,1.334,2.184,1.537,0.605,1.081,0.994,��,5.6,��
2016/10/21,10:40,1.170,1.963,1.333,2.187,1.539,0.606,1.081,0.992,���k��,5.6,��
2016/10/21,10:50,1.170,1.967,1.330,2.186,1.539,0.604,1.081,0.992,���k��,6.9,��
2016/10/21,11:00,1.173,1.965,1.333,2.188,1.534,0.604,1.083,0.991,���k��,5.2,��
2016/10/21,11:10,1.172,1.965,1.333,2.188,1.541,0.606,1.082,0.993,���k��,4.5,��
2016/10/21,11:20,1.172,1.969,1.338,2.187,1.541,0.605,1.081,0.993,��,5.2,��
2016/10/21,11:30,1.175,1.973,1.339,2.188,1.539,0.605,1.081,0.994,���쐼,4.5,��
2016/10/21,11:40,1.174,1.972,1.340,2.185,1.538,0.607,1.082,0.993,��,3.2,��
2016/10/21,11:50,1.175,1.970,1.341,2.192,1.541,0.607,1.081,0.994,���쐼,6.4,��
2016/10/21,12:00,1.173,1.974,1.341,2.191,1.543,0.607,1.082,0.994,���쐼,6.6,��
2016/10/21,12:10,1.169,1.968,1.335,2.189,1.542,0.609,1.083,0.994,���쐼,7.4,��
2016/10/21,12:20,1.170,1.967,1.333,2.187,1.543,0.610,1.083,0.994,���쐼,7.1,��
2016/10/21,12:30,1.168,1.967,1.339,2.190,1.543,0.610,1.081,0.992,��,6.3,��
2016/10/21,12:40,1.168,1.969,1.342,2.189,1.543,0.610,1.081,0.993,��,7.1,��
2016/10/21,12:50,1.169,1.970,1.342,2.190,1.544,0.610,1.079,0.994,��,6.3,��
2016/10/21,13:00,1.168,1.973,1.341,2.187,1.545,0.608,1.082,0.991,��,5.0,��
2016/10/21,13:10,1.169,1.978,1.341,2.189,1.540,0.610,1.081,0.994,��,5.5,��
2016/10/21,13:20,1.169,1.976,1.346,2.191,1.545,0.610,1.082,0.995,��,5.8,��
2016/10/21,13:30,1.166,1.976,1.357,2.191,1.543,0.608,1.080,0.992,���k��,6.0,��
2016/10/21,13:40,1.168,1.972,1.347,2.193,1.545,0.607,1.081,0.991,���k��,5.8,��
2016/10/21,13:50,1.167,1.972,1.354,2.192,1.544,0.609,1.083,0.992,���k��,3.8,��
2016/10/21,14:00,1.168,1.977,1.357,2.194,1.541,0.609,1.080,0.992,�k��,3.9,��
2016/10/21,14:10,1.167,1.975,1.357,2.190,1.542,0.609,1.081,0.992,�k�k��,3.0,��
2016/10/21,14:20,1.166,1.975,1.358,2.191,1.539,0.608,1.080,0.993,�k�k��,3.2,��
2016/10/21,14:30,1.168,1.972,1.359,2.187,1.544,0.607,1.082,0.993,�k��,2.1,��
2016/10/21,14:40,1.168,1.968,1.359,2.190,1.544,0.608,1.080,0.992,�k�k��,4.1,��
2016/10/21,14:50,1.165,1.955,1.357,2.189,1.545,0.605,1.080,0.993,�k��,3.8,��
2016/10/21,15:00,1.169,1.977,1.359,2.193,1.545,0.606,1.081,0.991,�k��,3.5,��
2016/10/21,15:10,1.167,1.949,1.362,2.190,1.541,0.606,1.081,0.993,�k��,3.0,��
2016/10/21,15:20,1.165,1.965,1.360,2.191,1.544,0.606,1.080,0.992,�k��,2.5,��
2016/10/21,15:30,1.169,1.978,1.356,2.192,1.540,0.606,1.080,0.993,�k��,2.3,��
2016/10/21,15:40,1.170,1.977,1.359,2.190,1.541,0.609,1.080,0.991,�k�k��,3.0,��
2016/10/21,15:50,1.169,1.975,1.362,2.192,1.542,0.610,1.080,0.990,�k,3.1,��
2016/10/21,16:00,1.172,1.975,1.358,2.191,1.541,0.608,1.080,0.990,�k�k��,2.6,��
2016/10/21,16:10,1.170,1.978,1.359,2.190,1.541,0.609,1.082,0.994,�k�k��,3.3,��
2016/10/21,16:20,1.171,1.979,1.358,2.192,1.545,0.611,1.080,0.996,�k�k��,3.6,��
2016/10/21,16:30,1.170,1.975,1.357,2.192,1.540,0.609,1.082,0.997,�k��,3.4,��
2016/10/21,16:40,1.170,1.977,1.355,2.187,1.541,0.610,1.079,0.996,�k��,2.3,��
2016/10/21,16:50,1.170,1.979,1.356,2.188,1.544,0.608,1.080,0.995,-,CALM,��
2016/10/21,17:00,1.169,1.979,1.358,2.186,1.542,0.609,1.081,0.994,�k�k��,2.1,��
2016/10/21,17:10,1.167,1.978,1.359,2.186,1.543,0.608,1.082,0.995,�k�k��,1.5,��
2016/10/21,17:20,1.168,1.974,1.359,2.186,1.542,0.608,1.079,0.994,�k�k��,1.1,��
2016/10/21,17:30,1.168,1.974,1.358,2.187,1.545,0.608,1.081,0.996,�k�k��,0.9,��
2016/10/21,17:40,1.169,1.976,1.359,2.187,1.548,0.609,1.082,0.994,�k�k��,1.0,��
2016/10/21,17:50,1.167,1.978,1.359,2.188,1.543,0.609,1.080,0.995,�k�k��,1.1,��
2016/10/21,18:00,1.167,1.974,1.358,2.187,1.542,0.608,1.082,0.993,�k�k��,1.5,��
2016/10/21,18:10,1.166,1.975,1.358,2.186,1.544,0.610,1.081,0.994,�k,1.3,��
2016/10/21,18:20,1.167,1.974,1.358,2.187,1.543,0.610,1.082,0.993,�k�k��,1.5,��
2016/10/21,18:30,1.166,1.973,1.357,2.186,1.546,0.608,1.078,0.994,�k��,2.0,��
2016/10/21,18:40,1.166,1.977,1.359,2.190,1.542,0.608,1.081,0.994,�k��,2.6,��
2016/10/21,18:50,1.169,1.976,1.357,2.188,1.541,0.608,1.083,0.993,�k�k��,3.6,��
2016/10/21,19:00,1.166,1.976,1.355,2.183,1.539,0.609,1.082,0.994,�k��,3.8,��
2016/10/21,19:10,1.167,1.974,1.355,2.186,1.544,0.606,1.079,0.992,�k��,4.4,��
2016/10/21,19:20,1.168,1.974,1.358,2.188,1.543,0.605,1.081,0.992,���k��,4.7,��
2016/10/21,19:30,1.168,1.973,1.357,2.187,1.542,0.608,1.078,0.994,���k��,5.8,��
2016/10/21,19:40,1.166,1.975,1.361,2.187,1.542,0.606,1.081,0.992,���k��,6.4,��
2016/10/21,19:50,1.166,1.975,1.356,2.188,1.542,0.608,1.081,0.993,���k��,4.9,��
2016/10/21,20:00,1.165,1.974,1.358,2.185,1.540,0.606,1.081,0.993,�k��,5.0,��
2016/10/21,20:10,1.166,1.974,1.357,2.188,1.541,0.606,1.080,0.994,�k��,5.0,��
2016/10/21,20:20,1.167,1.973,1.358,2.186,1.542,0.606,1.080,0.992,�k��,5.2,��
2016/10/21,20:30,1.166,1.971,1.357,2.184,1.541,0.607,1.080,0.992,�k��,4.9,��
2016/10/21,20:40,1.166,1.974,1.355,2.182,1.542,0.606,1.080,0.993,�k��,4.5,��
2016/10/21,20:50,1.166,1.972,1.356,2.185,1.543,0.607,1.079,0.994,���k��,4.4,��
2016/10/21,21:00,1.167,1.973,1.357,2.186,1.539,0.606,1.079,0.992,���k��,2.9,��
2016/10/21,21:10,1.166,1.973,1.356,2.184,1.539,0.606,1.081,0.993,���k��,2.7,��
2016/10/21,21:20,1.164,1.975,1.356,2.185,1.540,0.606,1.081,0.993,��,3.1,��
2016/10/21,21:30,1.163,1.974,1.357,2.184,1.540,0.606,1.080,0.993,���k��,3.2,��
2016/10/21,21:40,1.163,1.973,1.357,2.182,1.538,0.605,1.078,0.993,�k��,2.2,��
2016/10/21,21:50,1.165,1.974,1.355,2.184,1.537,0.605,1.079,0.992,�k��,2.4,��
2016/10/21,22:00,1.164,1.972,1.354,2.182,1.539,0.608,1.078,0.995,�k�k��,5.2,��
2016/10/21,22:10,1.166,1.971,1.356,2.183,1.539,0.607,1.079,0.992,�k�k��,4.4,��
2016/10/21,22:20,1.166,1.971,1.355,2.182,1.540,0.606,1.077,0.992,�k�k��,4.1,��
2016/10/21,22:30,1.165,1.972,1.356,2.187,1.536,0.606,1.080,0.992,�k�k��,5.3,��
2016/10/21,22:40,1.164,1.972,1.356,2.186,1.542,0.606,1.078,0.992,�k��,4.6,��
2016/10/21,22:50,1.162,1.972,1.355,2.183,1.541,0.607,1.080,0.992,�k��,4.9,��
2016/10/21,23:00,1.166,1.974,1.354,2.185,1.540,0.607,1.079,0.993,�k��,6.7,��
2016/10/21,23:10,1.164,1.971,1.354,2.186,1.539,0.605,1.080,0.993,�k��,6.6,��
2016/10/21,23:20,1.164,1.972,1.355,2.183,1.539,0.605,1.080,0.992,�k�k��,7.2,��
2016/10/21,23:30,1.165,1.975,1.355,2.185,1.539,0.605,1.078,0.992,�k�k��,5.3,��
2016/10/21,23:40,1.164,1.973,1.355,2.187,1.539,0.607,1.078,0.993,�k��,5.0,��
2016/10/21,23:50,1.164,1.970,1.354,2.186,1.539,0.605,1.077,0.992,�k��,5.2,��
